Location: ????????
(55.0097°N, 38.5678°E)
Time: 01:29:13
(UTC+00:00)

NOSS 3-1 (C) - Pass Details

Date: 22 December 2025
Orbit: 618 x 1583 km, 63.4° (Epoch: 10 January)

Event Time Altitude Azimuth Distance (km) Brightness Sun altitude
Rises 14:05:28 0° 166° (SSE) 2,959 6.3 -8.5°
Reaches altitude 10° 14:08:34 10° 142° (SE) 2,146 5.2 -8.9°
Maximum altitude 14:11:12 15° 108° (ESE) 1,942 4.7 -9.2°
Enters shadow 14:13:45 11° 78° (ENE) 2,305 4.9 -9.6°
